Погода в Сеуте

Испания     35°53′30″N   5°19′31″W
темп.,
°C
ветер,
м/с
пор.,
м/с
влажн.,
%
обл.,
%
осадки,
мм/ч
давл.,
гПа
погр.,
м
25 мая, ср
ср2523:00+19зюз1114747 0.0 1014444
02:00+19зюз11137648 0.0 1014370
05:00+18зюз10117337 0.0 1014411
08:00+17зюз9117738 0.0 1015434
11:00+18з101272100 0.0 1016446
14:00+19зюз8969100 0.0 1017195
17:00+19з346215 0.0 101752
20:00+19всв4572100 0.0 101892
26 мая, чт
чт2623:00+19всв578934 0.0 1019196
02:00+19всв810897 0.0 1019369
05:00+19всв8118220 0.0 1019453
08:00+19всв912855 0.0 1019491
11:00+19всв1014830 0.0 1020601
14:00+19всв1014820 0.0 1020645
17:00+19в912810 0.0 1020492
20:00+19в811845 0.0 1020479
27 мая, пт
пт2723:00+19в912870 0.0 1021485
02:00+19всв912874 0.0 1021493
05:00+19всв911860 0.0 1020452
08:00+19всв811850 0.0 1020455
11:00+19всв811830 0.0 1020461
14:00+19всв811820 0.0 1020355
17:00+20в610824 0.0 1019282
20:00+20в69825 0.0 1018219
28 мая, сб
сб2823:00+20в69835 0.0 1019188
02:00+19всв710836 0.0 1018221
05:00+19всв8118211 0.0 1017247
08:00+20всв7118097 0.0 1016260
11:00+20всв710791 0.0 1016225
14:00+20всв57824 0.0 1017153
17:00+20всв46825 0.0 1015126
20:00+20в45820 0.0 1014103
29 мая, вс
вс2923:00+20в45840 0.0 101561
02:00+19св12857 0.0 101411
05:00+19ссз2281100 0.0 101417
08:00+19зюз1182100 0.0 101411
11:00+20з117755 0.0 101413
14:00+21юз3369100 0.0 101446
17:00+21зюз81073100 0.0 101396
20:00+20зюз91173100 0.0 1013124